When you browse on this site, cookies collect data to enhance your experience and personalize the content and advertising you see.
Visit our Privacy Policy to learn more. By continuing to use the site, you agree to this use of cookies and data.
  • In Romania
  • List of Countries
  • For 7 days
  • Water Temperature
  • Satellite Maps
  • Weather Map
  • Weather Widgets
  • user-avatar
    Login

    Hourly Weather Askim

    Today, 24 July, Wednesday

    Time Temperature Precipitation Wind Pressure Humidity
    00:00 +16°C° 0 mm 0 mps 749 mmHg 93%
    01:00 +16°C° 0 mm 0 mps 750 mmHg 94%
    02:00 +16°C° 0 mm 0 mps 750 mmHg 95%
    03:00 +15°C° 0 mm 0 mps 750 mmHg 95%
    04:00 +15°C° 0 mm 0 mps 750 mmHg 96%
    05:00 +17°C° 0 mm 0 mps 750 mmHg 89%
    06:00 +21°C° 0 mm 1 mps 750 mmHg 82%
    07:00 +22°C° 0 mm 1 mps 750 mmHg 75%
    08:00 +24°C° 0 mm 1 mps 750 mmHg 69%
    09:00 +26°C° 0 mm 1 mps 750 mmHg 63%
    10:00 +28°C° 0 mm 2 mps 750 mmHg 56%
    11:00 +28°C° 0 mm 2 mps 750 mmHg 54%
    12:00 +29°C° 0 mm 2 mps 750 mmHg 52%
    13:00 +29°C° 0 mm 2 mps 750 mmHg 50%
    14:00 +29°C° 0 mm 3 mps 750 mmHg 52%
    15:00 +28°C° 0 mm 3 mps 750 mmHg 54%
    16:00 +27°C° 0 mm 3 mps 750 mmHg 56%
    17:00 +26°C° 0 mm 3 mps 750 mmHg 60%
    18:00 +24°C° 0 mm 3 mps 750 mmHg 64%
    19:00 +23°C° 0 mm 2 mps 750 mmHg 68%
    20:00 +20°C° 0 mm 2 mps 750 mmHg 77%
    21:00 +19°C° 0 mm 1 mps 750 mmHg 86%
    22:00 +16°C° 0 mm 1 mps 751 mmHg 94%
    23:00 +15°C° 0 mm 1 mps 751 mmHg 95%

    Tomorrow, 25 July, Thursday

    Time Temperature Precipitation Wind Pressure Humidity
    00:00 +15°C° 0 mm 1 mps 751 mmHg 96%
    01:00 +15°C° 0 mm 1 mps 751 mmHg 97%
    02:00 +15°C° 0 mm 1 mps 751 mmHg 97%
    03:00 +15°C° 0 mm 1 mps 751 mmHg 97%
    04:00 +15°C° 0 mm 1 mps 751 mmHg 97%
    05:00 +16°C° 0 mm 1 mps 751 mmHg 92%
    06:00 +19°C° 0 mm 1 mps 751 mmHg 87%
    07:00 +21°C° 0 mm 1 mps 751 mmHg 82%
    08:00 +21°C° 0 mm 2 mps 752 mmHg 77%
    09:00 +23°C° 0 mm 2 mps 752 mmHg 73%
    10:00 +24°C° 0 mm 2 mps 752 mmHg 68%
    11:00 +25°C° 0 mm 3 mps 752 mmHg 63%
    12:00 +26°C° 0 mm 3 mps 752 mmHg 57%
    13:00 +27°C° 0 mm 3 mps 751 mmHg 52%
    14:00 +27°C° 0 mm 3 mps 751 mmHg 51%
    15:00 +27°C° 0 mm 3 mps 751 mmHg 51%
    16:00 +28°C° 0 mm 3 mps 751 mmHg 50%
    17:00 +26°C° 0 mm 3 mps 751 mmHg 55%
    18:00 +25°C° 0 mm 2 mps 751 mmHg 60%
    19:00 +24°C° 0 mm 2 mps 751 mmHg 65%
    20:00 +23°C° 0 mm 2 mps 751 mmHg 71%
    21:00 +21°C° 0 mm 1 mps 751 mmHg 78%
    22:00 +19°C° 0 mm 1 mps 752 mmHg 84%
    23:00 +19°C° 0 mm 1 mps 752 mmHg 85%

    Day after tomorrow, 26 July, Friday

    Time Temperature Precipitation Wind Pressure Humidity
    00:00 +19°C° 0 mm 1 mps 752 mmHg 86%
    01:00 +18°C° 0 mm 1 mps 752 mmHg 88%
    02:00 +18°C° 0 mm 1 mps 752 mmHg 89%
    03:00 +18°C° 0 mm 1 mps 752 mmHg 90%
    04:00 +16°C° 0 mm 0 mps 752 mmHg 91%
    05:00 +17°C° 0 mm 0 mps 752 mmHg 85%
    06:00 +19°C° 0 mm 0 mps 752 mmHg 79%
    07:00 +21°C° 0 mm 0 mps 752 mmHg 73%
    08:00 +23°C° 0 mm 0 mps 753 mmHg 68%
    09:00 +25°C° 0 mm 0 mps 753 mmHg 64%
    10:00 +29°C° 0 mm 1 mps 753 mmHg 59%
    11:00 +30°C° 0 mm 1 mps 753 mmHg 56%
    12:00 +31°C° 0 mm 1 mps 752 mmHg 52%
    13:00 +32°C° 0 mm 1 mps 752 mmHg 49%
    14:00 +32°C° 0 mm 1 mps 752 mmHg 48%
    15:00 +32°C° 0 mm 1 mps 752 mmHg 48%
    16:00 +31°C° 0 mm 1 mps 752 mmHg 47%
    17:00 +30°C° 0 mm 1 mps 752 mmHg 53%
    18:00 +29°C° 0 mm 1 mps 752 mmHg 59%
    19:00 +28°C° 0 mm 1 mps 752 mmHg 65%
    20:00 +24°C° 0 mm 0 mps 752 mmHg 69%
    21:00 +23°C° 0 mm 0 mps 752 mmHg 73%
    22:00 +21°C° 0 mm 0 mps 752 mmHg 77%
    23:00 +20°C° 0 mm 0 mps 752 mmHg 77%

    27 July, Saturday

    Time Temperature Precipitation Wind Pressure Humidity
    00:00 +22°C° 0 mm 1 mps 752 mmHg 77%
    01:00 +21°C° 0 mm 1 mps 753 mmHg 77%
    02:00 +21°C° 0 mm 1 mps 753 mmHg 77%
    03:00 +20°C° 0 mm 1 mps 753 mmHg 78%
    04:00 +19°C° 0 mm 1 mps 753 mmHg 79%
    05:00 +21°C° 0 mm 1 mps 753 mmHg 73%
    06:00 +22°C° 0 mm 1 mps 753 mmHg 68%
    07:00 +23°C° 0 mm 1 mps 753 mmHg 63%
    08:00 +25°C° 0 mm 2 mps 753 mmHg 58%
    09:00 +26°C° 0 mm 2 mps 753 mmHg 53%
    10:00 +28°C° 0 mm 2 mps 753 mmHg 47%
    11:00 +29°C° 0 mm 2 mps 753 mmHg 45%
    12:00 +29°C° 0 mm 2 mps 753 mmHg 43%
    13:00 +30°C° 0 mm 2 mps 752 mmHg 40%
    14:00 +30°C° 0 mm 2 mps 752 mmHg 40%
    15:00 +31°C° 0 mm 2 mps 752 mmHg 41%
    16:00 +31°C° 0 mm 2 mps 751 mmHg 41%
    17:00 +30°C° 0 mm 2 mps 751 mmHg 46%
    18:00 +29°C° 0 mm 2 mps 751 mmHg 51%
    19:00 +28°C° 0 mm 2 mps 751 mmHg 56%
    20:00 +26°C° 0 mm 1 mps 751 mmHg 61%
    21:00 +24°C° 0 mm 1 mps 751 mmHg 66%
    22:00 +20°C° 0 mm 0 mps 752 mmHg 71%
    23:00 +20°C° 0 mm 0 mps 752 mmHg 72%

    28 July, Sunday

    Time Temperature Precipitation Wind Pressure Humidity
    00:00 +21°C° 0 mm 1 mps 752 mmHg 74%
    01:00 +21°C° 0 mm 1 mps 752 mmHg 75%
    02:00 +20°C° 0 mm 1 mps 752 mmHg 77%
    03:00 +20°C° 0 mm 1 mps 752 mmHg 79%
    04:00 +20°C° 0 mm 1 mps 752 mmHg 81%
    05:00 +21°C° 0 mm 1 mps 753 mmHg 76%
    06:00 +23°C° 0 mm 1 mps 753 mmHg 71%
    07:00 +24°C° 0 mm 1 mps 753 mmHg 66%
    08:00 +26°C° 0 mm 1 mps 753 mmHg 60%
    09:00 +28°C° 0 mm 1 mps 753 mmHg 54%
    10:00 +30°C° 0 mm 1 mps 753 mmHg 48%
    11:00 +31°C° 0 mm 1 mps 753 mmHg 44%
    12:00 +32°C° 0 mm 1 mps 752 mmHg 41%
    13:00 +33°C° 0 mm 1 mps 752 mmHg 38%
    14:00 +32°C° 0 mm 1 mps 752 mmHg 39%
    15:00 +32°C° 0 mm 1 mps 752 mmHg 40%
    16:00 +31°C° 0 mm 1 mps 751 mmHg 42%
    17:00 +30°C° 0 mm 1 mps 751 mmHg 47%
    18:00 +29°C° 0 mm 1 mps 751 mmHg 52%
    19:00 +28°C° 0 mm 1 mps 751 mmHg 57%
    20:00 +25°C° 0 mm 0 mps 751 mmHg 62%
    21:00 +23°C° 0 mm 0 mps 751 mmHg 67%
    22:00 +21°C° 0 mm 0 mps 752 mmHg 72%
    23:00 +20°C° 0 mm 0 mps 752 mmHg 72%

    29 July, Monday

    Time Temperature Precipitation Wind Pressure Humidity
    00:00 +20°C° 0 mm 0 mps 752 mmHg 73%
    01:00 +19°C° 0 mm 0 mps 753 mmHg 73%
    02:00 +21°C° 0 mm 1 mps 753 mmHg 77%
    03:00 +20°C° 0 mm 1 mps 753 mmHg 80%
    04:00 +19°C° 0 mm 1 mps 753 mmHg 84%
    05:00 +20°C° 0 mm 1 mps 753 mmHg 80%
    06:00 +22°C° 0 mm 1 mps 753 mmHg 77%
    07:00 +23°C° 0 mm 1 mps 753 mmHg 74%
    08:00 +25°C° 0 mm 1 mps 753 mmHg 66%
    09:00 +27°C° 0 mm 1 mps 753 mmHg 58%
    10:00 +29°C° 0 mm 1 mps 753 mmHg 50%
    11:00 +30°C° 0 mm 1 mps 752 mmHg 48%
    12:00 +31°C° 0 mm 2 mps 752 mmHg 45%
    13:00 +31°C° 0 mm 2 mps 752 mmHg 43%
    14:00 +31°C° 0 mm 2 mps 752 mmHg 44%
    15:00 +30°C° 0 mm 3 mps 751 mmHg 45%
    16:00 +30°C° 0 mm 3 mps 751 mmHg 46%
    17:00 +29°C° 0 mm 3 mps 751 mmHg 51%
    18:00 +27°C° 0 mm 2 mps 750 mmHg 56%
    19:00 +26°C° 0 mm 2 mps 750 mmHg 60%
    20:00 +24°C° 0 mm 2 mps 750 mmHg 66%
    21:00 +23°C° 0 mm 2 mps 751 mmHg 72%
    22:00 +20°C° 0 mm 2 mps 751 mmHg 77%
    23:00 +19°C° 0 mm 2 mps 751 mmHg 80%
    Show more